Location: Sternwarte_Laufen
(47.9344°N, 12.9346°E)
Time: 09:17:55
(UTC+02:00)

ISS - Pass Details

Date: 26 May 2017
Orbit: 401 x 408 km, 51.6° (Epoch: 28 June)

Event Time Altitude Azimuth Distance (km) Brightness Sun altitude
Rises 00:08:11 0° 271° (W) 2,337 0.2 -19.8°
Reaches altitude 10° 00:10:20 10° 278° (W) 1,476 -0.7 -19.9°
Maximum altitude 00:13:31 44° 352° (N) 574 -2.6 -20.0°
Drops below altitude 10° 00:16:43 10° 67° (ENE) 1,473 -0.9 -20.1°
Sets 00:18:51 0° 74° (ENE) 2,333 0.1 -20.2°
